Location: Gradaro
(45.0833°N, 10.8833°E)
Time: 04:19:27
(UTC+00:00)

FENGYUN 1C DEB - Pass Details

Date: 01 July 2021
Orbit: 744 x 851 km, 99.4° (Epoch: 19 July)

Event Time Altitude Azimuth Distance (km) Brightness Sun altitude
Exits shadow 22:34:23 16° 105° (ESE) 2,028 ? -21.1°
Maximum altitude 22:37:21 25° 62° (ENE) 1,577 ? -21.2°
Drops below altitude 10° 22:41:30 10° 9° (N) 2,357 ? -21.3°
Sets 22:44:08 0° 356° (N) 3,272 ? -21.4°
